Dewpoint
63 63 62 60 60 60 60 60 60 60 60 61 61 61 62 62 57 56 54 53 58 59 60 61 61 61 61 64 63 62 61 60 59
65 64 63 61 60 59 59 60 61 62 61 61 61 60 63 57 55 56 56 54 57 59 61 62 61 62 61 61 62 62 62 61 59
65 65 63 62 61 61 60 61 62 63 64 63 62 62 63 57 54 56 57 60 56 58 61 61 62 61 62 61 61 61 61 61 60
65 65 63 62 63 63 62 62 62 62 63 63 63 64 64 58 54 53 55 61 59 58 59 61 62 62 63 63 61 61 61 61 61
63 63 64 63 63 63 63 63 62 62 63 63 64 64 64 57 56 54 54 62 59 60 60 60 61 62 63 63 64 62 62 61 61
59 62 64 63 63 63 64 64 63 64 64 64 64 64 58 55 53 51 58 60 59 60 61 61 61 61 62 64 65 65 62 62 62
58 60 63 64 64 65 64 64 65 64 59 58 63 59 57 55 55 54 61 58 58 59 60 61 61 61 61 62 64 64 65 64 64
56 57 58 59 61 61 60 60 60 58 58 57 56 56 56 56 56 57 63 61 59 60 61 61 60 61 62 62 62 64 65 66 66
57 57 58 59 58 58 60 59 58 58 58 57 56 57 57 57 57 57 61 63 61 61 62 63 62 61 60 62 62 64 65 65 66
59 59 59 59 60 59 59 59 58 58 58 57 57 57 57 57 57 58 60 63 63 62 62 63 64 64 63 61 63 64 64 65 65
61 60 60 60 60 59 59 59 59 58 57 57 57 56 56 56 56 57 58 62 63 63 63 63 63 65 65 64 64 63 64 64 65
61 60 60 61 60 59 58 57 56 55 55 53 54 54 54 55 55 56 57 58 61 63 64 63 63 63 65 65 65 65 64 64 64
60 60 59 56 55 54 53 51 50 50 49 49 51 51 51 51 51 53 55 57 56 59 63 64 63 62 62 63 64 65 65 65 64
53 48 46 45 46 44 44 42 42 42 43 43 43 43 46 48 46 48 52 54 56 57 59 60 62 63 62 62 62 63 64 65 64
44 42 41 40 42 42 42 40 42 42 41 37 38 42 42 42 44 47 44 43 43 43 46 52 56 60 62 62 62 62 62 62 64
40 40 39 40 40 39 38 38 38 39 38 38 39 38 40 36 40 38 38 41 42 41 44 48 48 53 59 60 61 61 61 61 62
35 35 35 35 36 35 35 35 35 34 35 34 35 33 33 34 35 36 37 36 41 38 41 42 41 43 45 49 54 59 59 59 58
28 29 28 29 32 33 33 32 33 33 33 33 28 30 28 32 35 33 34 31 31 35 33 35 36 37 38 42 44 52 55 55 57
22 23 25 25 26 27 30 25 30 33 31 31 24 28 28 30 28 29 31 29 25 27 30 29 29 32 38 43 45 52 52 52 53
21 20 22 22 24 25 26 28 28 31 28 27 28 27 30 28 25 23 24 24 24 27 27 29 31 34 37 42 43 48 47 48 49
Lifted_Index
3 3 4 5 5 5 6 6 6 6 6 6 6 6 6 6 7 7 7 7 7 6 5 5 5 5 5 4 4 5 5 6 7
2 3 4 5 5 5 5 6 6 6 6 6 6 6 6 7 7 7 7 7 7 6 5 5 5 5 5 5 5 5 5 6 6
2 2 3 4 4 5 5 5 5 5 5 5 5 6 6 7 8 8 7 7 7 7 6 6 5 5 5 5 5 6 6 6 6
2 3 3 3 4 4 4 5 5 5 4 4 5 5 6 7 8 8 7 7 7 7 7 6 6 5 5 5 5 5 6 6 6
3 3 3 3 3 4 4 4 5 5 5 4 5 5 6 7 7 8 7 7 7 7 7 6 6 5 5 4 4 5 5 6 6
4 4 4 4 4 4 4 4 4 4 5 5 5 5 6 6 7 7 7 7 7 7 7 7 6 6 5 5 4 4 5 5 5
4 4 4 4 4 4 4 4 4 4 5 5 5 5 5 6 6 6 7 7 8 7 7 7 7 6 6 5 5 4 4 4 4
4 4 4 4 4 4 4 4 4 4 4 4 4 5 5 5 5 5 6 6 7 7 7 6 7 6 6 6 5 4 4 4 3
3 3 3 3 3 3 3 3 3 3 4 4 4 4 4 4 4 4 4 5 6 6 6 6 6 6 6 6 5 4 4 3 3
2 2 2 2 3 3 3 3 3 3 3 3 3 3 3 3 3 3 4 4 4 5 5 5 5 5 5 5 5 4 4 3 3
1 2 2 2 2 3 3 3 3 3 3 3 3 3 3 3 4 3 3 4 4 4 4 4 4 4 4 4 3 3 3 3 3
1 1 2 2 3 3 3 4 4 4 5 5 5 5 5 5 5 4 4 4 4 4 4 4 4 4 3 3 3 2 2 2 2
2 3 4 4 5 5 6 7 7 7 8 8 7 7 7 6 6 6 5 4 4 4 4 4 4 4 4 3 3 2 2 2 2
6 6 7 8 8 9 10 10 10 10 11 10 10 10 9 8 8 7 6 5 5 5 5 5 4 4 4 4 3 3 2 2 2
9 10 11 11 11 12 12 12 12 12 13 13 12 12 11 10 10 9 8 7 7 7 7 6 5 4 4 3 3 3 3 2 2
11 12 12 12 12 13 13 14 14 14 14 14 14 13 13 13 12 11 11 10 10 10 9 8 7 6 5 4 4 3 3 3 3
12 12 12 13 14 14 15 15 15 15 16 16 16 15 15 15 15 14 13 13 12 12 11 10 10 9 8 7 6 5 4 4 4
12 13 13 14 15 16 17 17 17 17 17 17 17 17 16 17 16 16 15 15 15 14 13 13 13 12 11 10 9 8 6 6 6
13 14 15 16 17 18 19 19 19 19 18 19 19 18 18 17 17 17 17 17 17 16 16 15 15 14 13 12 11 9 8 8 8
13 14 16 17 18 19 20 20 20 19 19 19 19 19 18 18 18 18 18 18 18 18 17 17 16 15 13 12 11 10 10 9 9